Regional Weather Roundup
Issued by NWS

Home | Current Version | Previous Version | Text Only | Print | Product List | Glossary Off
Versions: 1 2 3 4 5 6 7 8 9 10 11 12 13 14 15 16 17 18 19 20 21 22 23 24 25 26 27 28 29 30 31 32 33 34 35 36 37 38 39 40 41 42 43 44 45 46 47 48 49 50

000
ASUS43 KDMX 030507
RWRIA

WEATHER ROUNDUP FOR IOWA
NATIONAL WEATHER SERVICE DES MOINES IA
1200 AM CDT SUN MAY 03 2015

NOTE: "FAIR" INDICATES FEW OR NO CLOUDS BELOW 12,000 FEET WITH NO
SIGNIFICANT WEATHER AND/OR OBSTRUCTIONS TO VISIBILITY.

* - THESE STATIONS ARE NOT NWS STATIONS...THUS NOT UNDER NWS
QUALITY CONTROL.  THEY ALSO DO NOT REPORT WEATHER SUCH
AS PRECIPITATION OR FOG.

IAZ001>003-012>014-020>022-031>034-043>046-030600-
   NORTHWEST IOWA

CITY           SKY/WX    TMP DP  RH WIND       PRES   REMARKS
CARROLL *      PTCLDY    59  54  82 S7        29.79F
CHEROKEE *     MOCLDY    61  54  77 SE9       29.76F
DENISON *      CLEAR     64  57  77 S16G28    29.75F
LE MARS *      CLEAR     63  55  77 SE10G18   29.73F
ORANGE CITY *  CLEAR     61  54  77 SE7       29.75F
SHELDON *      PTCLDY    61  55  82 SE14      29.75F
SIOUX CITY     CLOUDY    63  55  75 SE9       29.72F
SPENCER        MOCLDY    61  53  75 SE16      29.78F
STORM LAKE *   CLEAR     59  54  82 SE15      29.78F
$$

IAZ055>058-069>071-079>083-090>094-030600-
   SOUTHWEST IOWA

CITY           SKY/WX    TMP DP  RH WIND       PRES   REMARKS
ATLANTIC *     CLEAR     64  54  68 S13G20    29.81F
AUDUBON *      PTCLDY    63  55  77 S12G20    29.81F
CLARINDA *     CLEAR     64  54  68 S10G16    29.85F
COUNCIL BLFS * LGT RAIN  66  59  77 SW14      29.85R
CRESTON *      CLOUDY    59  55  88 S15G21    29.86F
HARLAN  *      PTCLDY    64  57  77 S15       29.84R
LAMONI         MOCLDY    59  53  80 S9        29.89S
RED OAK *      CLOUDY    64  55  72 S15       29.81F
SHENANDOAH *   CLEAR     64  55  72 SE15      29.82F
$$

IAZ047>049-059>061-072>074-084-030600-
   CENTRAL IOWA

CITY           SKY/WX    TMP DP  RH WIND       PRES   REMARKS
AMES           TSTM      59  51  75 SE16      29.85S
ANKENY *       CLEAR     57  52  82 S12       29.84F
CHARITON *     PTCLDY    59  50  72 S13       29.89R
DES MOINES     PTCLDY    58  51  78 S9        29.86F
GRINNELL*      MOCLDY    59  52  77 SE15      29.89S
KNOXVILLE *    PTCLDY    57  48  72 S13       29.87S
MARSHALLTOWN   PTCLDY    58  51  78 S12       29.86F
PELLA *        PTCLDY    57  55  91 S8        29.90S
PERRY *        MOCLDY    59  52  77 S13       29.81F
$$

IAZ004>006-015-016-023>025-035-036-030600-
   NORTH CENTRAL IOWA

CITY           SKY/WX    TMP DP  RH WIND       PRES   REMARKS
ALGONA *       PTCLDY    59  52  77 S15G22    29.82F
CLARION *      CLEAR     57  52  82 SE10      29.84F
ESTHERVILLE    CLEAR     57  51  80 S18       29.79F
FORT DODGE *   MOCLDY    61  52  72 S9        29.84S
MASON CITY     CLEAR     56  50  80 S9        29.86F
FOREST CITY *  CLEAR     55  50  82 S9        29.84F
IOWA FALLS *     N/A     57  50  77 SE12      29.87S
$$

IAZ007>011-017>019-026>030-037>042-050>054-066-030600-
   NORTHEAST IOWA

CITY           SKY/WX    TMP DP  RH WIND       PRES   REMARKS
CEDAR RAPIDS   MOCLDY    59  54  83 S8        29.92F
CHARLES CITY * PTCLDY    59  54  82 S10       29.87F
CLINTON *        N/A     59  48  67 S8        29.98S
DECORAH *      CLEAR     59  52  77 S10       29.88F
DUBUQUE        MOCLDY    56  49  77 S10       29.94S
MONTICELLO *   CLOUDY    61  54  77 S5        29.93S
OELWEIN *      CLOUDY    59  52  77 S10       29.90F
WATERLOO       CLOUDY    60  52  74 SE13      29.87F
$$

IAZ064-065-067-068-078-030600-
   EAST CENTRAL IOWA

CITY           SKY/WX    TMP DP  RH WIND       PRES   REMARKS
DAVENPORT      PTCLDY    61  47  59 S8        29.96S
IOWA CITY      PTCLDY    59  52  77 E7        29.93F
MT. PLEASANT * CLOUDY    55  52  88 E7        29.95S
MUSCATINE *    PTCLDY    61  50  67 S8        29.93F
QUAD CITIES    CLOUDY    62  48  60 S3        29.95S
$$

IAZ062-063-075>077-085>089-095>099-030600-
   SOUTHEAST IOWA

CITY           SKY/WX    TMP DP  RH WIND       PRES   REMARKS
BURLINGTON     MOCLDY    61  48  62 SE7       29.94F
FAIRFIELD *    PTCLDY    54  50  87 SE9       29.92F
FORT MADISON * MOCLDY    61  48  63 SE6       29.95F
KEOKUK *       CLOUDY    61  50  67 SE8       29.94F
OSKALOOSA *      N/A     55  52  88 S10       29.90F
CENTERVILLE *  PTCLDY    55  52  88 SE10      29.93S
OTTUMWA        PTCLDY    57  51  80 S13       29.90F
WASHINGTON *   MOCLDY    59  57  94 S14       29.92F
$$

ABBREVIATIONS USED IN REMARKS
   TC - TEMPERATURES IN CELSIUS
  WCI - WIND CHILL INDEX
   HX - HEAT INDEX
  VSB - VISIBILITY
$$



USA.gov is the U.S. government's official web portal to all federal, state and local government web resources and services.